Location: Bergfeld
(52.0500°N, 11.7833°E)
Time: 09:15:44
(UTC+00:00)

COSMO-SKYMED 1 - Pass Details

Date: 17 February 2020
Orbit: 621 x 623 km, 97.9° (Epoch: 04 April)

Event Time Altitude Azimuth Distance (km) Brightness Sun altitude
Rises 05:37:04 0° 211° (SSW) 2,896 5.8 -8.0°
Reaches altitude 10° 05:40:01 10° 233° (SW) 1,996 4.8 -7.6°
Maximum altitude 05:42:43 16° 272° (W) 1,637 4.1 -7.2°
Drops below altitude 10° 05:45:26 10° 310° (NW) 2,007 4.7 -6.8°
Sets 05:48:26 0° 332° (NNW) 2,920 5.6 -6.3°
